Winfield, KS

1:28 PM CDT on August 23, 2017 (GMT -0500)
Strother

Weather History for KWLD - February, 2014

Change the Weather History Date:

Tuesday, February 4, 2014

  Actual Average Record
Temperature  
Mean Temperature 26 °F -  
Max Temperature 32 °F 44 °F 72 °F (2008)
Min Temperature 19 °F 25 °F 3 °F (2011)
Degree Days  
Heating Degree Days 40    
Moisture  
Dew Point 23 °F    
Average Humidity 86    
Maximum Humidity 96    
Minimum Humidity 45    
Precipitation  
Precipitation 0.22 in - - ()
Sea Level Pressure  
Sea Level Pressure 30.01 in    
Wind  
Wind Speed 10 mph (NE)    
Max Wind Speed 22 mph    
Max Gust Speed 30 mph    
Visibility 4 miles    
Events Fog , Snow    
Averages and records for this station are not official NWS values.
T = Trace of Precipitation, MM = Missing Value Source: NWS Daily Summary

Daily Weather History Graph

Daily Weather History Graph

Search for Another Location

Airport or City:

Trip Planner

Search our weather history database for the weather conditions in past years. The results will help you decide how hot, cold, wet, or windy it might be!

Date:

Astronomy

Feb. 04, 2014 Rise Set
Actual Time 7:28 AM CST 5:56 PM CST
Civil Twilight 7:01 AM CST 6:23 PM CST
Nautical Twilight 6:30 AM CST 6:54 PM CST
Astronomical Twilight 5:59 AM CST 7:25 PM CST
Moon 10:15 AM CST (2/4) 11:42 PM CST (2/4)
Length of Visible Light 11h 22m
Length of Day
10h 27m
Waxing Crescent, 29% of the Moon is Illuminated
Feb 4
Waxing Crescent
Feb 6
First Quarter
Feb 14
Full
Feb 22
Last Quarter
Mar 1
New

Hourly Weather History & Observations

Time (CST) Temp. Windchill Dew Point Humidity Pressure Visibility Wind Dir Wind Speed Gust Speed Precip Events Conditions
12:54 AM 32.0 °F 26.4 °F 12.9 °F 45% 30.12 in 10.0 mi East 5.8 mph - N/A   Overcast
1:54 AM 32.0 °F 25.6 °F 14.0 °F 48% 30.09 in 10.0 mi East 6.9 mph - N/A   Overcast
2:54 AM 32.0 °F 26.4 °F 18.0 °F 56% 30.11 in 9.0 mi ENE 5.8 mph - 0.00 in   Overcast
3:54 AM 30.9 °F 22.2 °F 18.0 °F 59% 30.10 in 10.0 mi ENE 10.4 mph - N/A   Overcast
4:54 AM 28.9 °F 19.2 °F 23.0 °F 78% 30.08 in 5.0 mi NE 11.5 mph - 0.00 in Snow Light Snow
5:50 AM 28.4 °F 19.1 °F 26.6 °F 93% 30.01 in 2.5 mi NE 10.4 mph - 0.00 in Snow Light Snow
5:54 AM 28.9 °F 19.8 °F 26.1 °F 89% 30.03 in 2.0 mi ENE 10.4 mph - 0.00 in Snow Light Snow
6:06 AM 28.9 °F 19.8 °F 26.1 °F 89% 30.01 in 1.5 mi ENE 10.4 mph - 0.00 in Snow Light Snow
6:13 AM 28.9 °F 20.4 °F 27.0 °F 92% 30.02 in 2.0 mi East 9.2 mph - 0.00 in Snow Light Snow
6:21 AM 28.9 °F 19.8 °F 27.0 °F 92% 30.02 in 3.0 mi East 10.4 mph - 0.00 in Snow Light Snow
6:29 AM 28.9 °F 18.2 °F 26.1 °F 89% 30.02 in 1.8 mi East 13.8 mph 20.7 mph 0.01 in Snow Light Snow
6:54 AM 28.0 °F 17.5 °F 26.1 °F 92% 30.02 in 1.2 mi ENE 12.7 mph 20.7 mph 0.02 in Snow Light Snow
7:02 AM 28.0 °F 17.5 °F 26.1 °F 92% 30.00 in 1.0 mi East 12.7 mph 20.7 mph 0.00 in Snow Light Snow
7:09 AM 28.0 °F 16.1 °F 26.1 °F 92% 29.99 in 0.8 mi East 16.1 mph 23.0 mph 0.01 in Snow Light Snow
7:18 AM 27.0 °F 15.6 °F 26.1 °F 96% 30.00 in 0.8 mi East 13.8 mph 23.0 mph 0.01 in Snow Light Snow
7:34 AM 27.0 °F 15.6 °F 26.1 °F 96% 30.00 in 0.5 mi East 13.8 mph - 0.02 in Fog , Snow Snow
7:54 AM 27.0 °F 15.6 °F 26.1 °F 96% 30.01 in 0.5 mi East 13.8 mph - 0.04 in Fog , Snow Snow
8:18 AM 27.0 °F 15.6 °F 25.0 °F 92% 29.98 in 0.8 mi East 13.8 mph 18.4 mph 0.01 in Snow Light Snow
8:33 AM 27.0 °F 16.1 °F 26.1 °F 96% 29.98 in 0.5 mi ENE 12.7 mph - 0.02 in Fog , Snow Snow
8:54 AM 27.0 °F 19.5 °F 26.1 °F 96% 30.03 in 0.5 mi East 6.9 mph - 0.03 in Fog , Snow Snow
9:51 AM 26.6 °F 20.0 °F 24.8 °F 93% 30.02 in 0.5 mi East 5.8 mph - 0.08 in Fog , Snow Snow
9:54 AM 27.0 °F 19.5 °F 26.1 °F 96% 30.04 in 0.5 mi East 6.9 mph - 0.08 in Fog , Snow Snow
10:17 AM 27.0 °F 19.5 °F 26.1 °F 96% 30.00 in 0.8 mi NE 6.9 mph - 0.01 in Snow Light Snow
10:50 AM 28.4 °F 19.1 °F 26.6 °F 93% 29.99 in 1.0 mi ENE 10.4 mph - 0.02 in Snow Light Snow
10:54 AM 28.0 °F 18.6 °F 26.1 °F 92% 30.02 in 1.2 mi NE 10.4 mph - 0.02 in Snow Light Snow
11:54 AM 28.0 °F 17.5 °F 25.0 °F 88% 29.97 in 1.5 mi ENE 12.7 mph - 0.01 in Snow Light Snow
12:24 PM 28.0 °F 18.6 °F 25.0 °F 88% 29.93 in 2.0 mi ENE 10.4 mph - 0.00 in   Overcast
12:31 PM 28.0 °F 18.6 °F 25.0 °F 88% 29.93 in 1.8 mi East 10.4 mph - 0.00 in Snow Light Snow
12:54 PM 28.0 °F 20.0 °F 26.1 °F 92% 29.95 in 1.0 mi ENE 8.1 mph - 0.00 in Snow Light Snow
12:59 PM 28.0 °F 19.3 °F 26.1 °F 92% 29.92 in 0.8 mi ENE 9.2 mph - 0.00 in Snow Light Snow
1:17 PM 28.0 °F 20.8 °F 26.1 °F 92% 29.91 in 0.8 mi ENE 6.9 mph - 0.01 in Snow Light Snow
1:26 PM 28.9 °F 19.8 °F 26.1 °F 89% 29.90 in 1.0 mi ENE 10.4 mph - 0.01 in Snow Light Snow
1:34 PM 28.9 °F 20.4 °F 26.1 °F 89% 29.90 in 1.0 mi ENE 9.2 mph - 0.01 in Snow Light Snow
1:44 PM 28.9 °F 20.4 °F 25.0 °F 85% 29.90 in 1.5 mi ENE 9.2 mph - 0.01 in Snow Light Snow
1:54 PM 28.0 °F 20.0 °F 25.0 °F 88% 29.94 in 2.5 mi ENE 8.1 mph - 0.01 in Snow Light Snow
2:02 PM 28.9 °F 21.1 °F 25.0 °F 85% 29.90 in 7.0 mi ENE 8.1 mph - 0.00 in   Overcast
2:34 PM 28.9 °F 21.9 °F 25.0 °F 85% 29.90 in 10.0 mi NE 6.9 mph - 0.00 in   Overcast
2:54 PM 28.9 °F 21.1 °F 25.0 °F 85% 29.93 in 9.0 mi NE 8.1 mph - 0.00 in   Overcast
3:09 PM 28.9 °F 21.1 °F 25.0 °F 85% 29.90 in 9.0 mi ENE 8.1 mph - N/A   Overcast
3:36 PM 28.9 °F 21.9 °F 25.0 °F 85% 29.90 in 6.0 mi NE 6.9 mph - N/A   Overcast
3:54 PM 28.9 °F 19.8 °F 24.1 °F 82% 29.93 in 5.0 mi NNE 10.4 mph - N/A   Haze
4:11 PM 28.0 °F 19.3 °F 24.1 °F 85% 29.91 in 5.0 mi NNE 9.2 mph - N/A   Overcast
4:27 PM 28.0 °F 18.6 °F 24.1 °F 85% 29.91 in 2.5 mi NNE 10.4 mph - 0.00 in Snow Light Snow
4:37 PM 28.0 °F 18.6 °F 24.1 °F 85% 29.91 in 1.8 mi NNE 10.4 mph - 0.00 in Snow Light Snow
4:44 PM 28.0 °F 18.1 °F 24.1 °F 85% 29.92 in 3.0 mi NNE 11.5 mph - 0.00 in Snow Light Snow
4:54 PM 28.0 °F 20.0 °F 24.1 °F 85% 29.96 in 2.5 mi NNE 8.1 mph - 0.00 in Snow Light Snow
5:03 PM 28.0 °F 18.6 °F 24.1 °F 85% 29.92 in 4.0 mi North 10.4 mph - 0.00 in Snow Light Snow
5:52 PM 26.6 °F 15.7 °F 23.0 °F 86% 29.95 in 8.0 mi NNE 12.7 mph - 0.00 in   Overcast
5:54 PM 27.0 °F 16.7 °F 23.0 °F 85% 29.99 in 8.0 mi North 11.5 mph - 0.00 in   Overcast
6:03 PM 27.0 °F 16.7 °F 23.0 °F 85% 29.96 in 8.0 mi NNE 11.5 mph - N/A   Overcast
6:38 PM 26.1 °F 15.0 °F 23.0 °F 88% 29.99 in 2.5 mi North 12.7 mph - 0.00 in Snow Light Snow
6:47 PM 26.1 °F 15.6 °F 23.0 °F 88% 29.99 in 1.8 mi North 11.5 mph - 0.01 in Snow Light Snow
6:54 PM 25.0 °F 12.2 °F 23.0 °F 92% 30.04 in 1.8 mi North 16.1 mph - 0.01 in Snow Light Snow
7:02 PM 25.0 °F 13.1 °F 23.0 °F 92% 30.00 in 2.0 mi North 13.8 mph - 0.00 in Snow Light Snow
7:14 PM 25.0 °F 12.6 °F 21.9 °F 88% 30.01 in 1.8 mi North 15.0 mph - 0.00 in Snow Light Snow
7:32 PM 24.1 °F 10.6 °F 21.9 °F 91% 30.02 in 2.5 mi North 17.3 mph - 0.00 in Snow Light Snow
7:38 PM 24.1 °F 11.5 °F 21.9 °F 91% 30.03 in 3.0 mi North 15.0 mph - 0.00 in Snow Light Snow
7:54 PM 24.1 °F 11.5 °F 21.0 °F 88% 30.08 in 5.0 mi North 15.0 mph - 0.00 in Snow Light Snow
8:00 PM 24.1 °F 9.4 °F 21.0 °F 88% 30.04 in 5.0 mi North 20.7 mph 25.3 mph 0.00 in Snow Light Snow
8:16 PM 23.0 °F 9.2 °F 19.0 °F 85% 30.06 in 5.0 mi North 17.3 mph - 0.00 in Snow Light Snow
8:32 PM 21.9 °F 7.8 °F 19.0 °F 89% 30.07 in 6.0 mi North 17.3 mph - 0.00 in Snow Light Snow
8:54 PM 21.0 °F 6.2 °F 17.1 °F 85% 30.13 in 10.0 mi North 18.4 mph - 0.00 in   Overcast
9:02 PM 19.9 °F 3.9 °F 16.0 °F 85% 30.09 in 10.0 mi North 20.7 mph - N/A   Scattered Clouds
9:54 PM 19.0 °F 5.0 °F 15.1 °F 85% 30.18 in 10.0 mi North 15.0 mph - N/A   Scattered Clouds
10:02 PM 19.0 °F 5.0 °F 15.1 °F 85% 30.14 in 10.0 mi North 15.0 mph - N/A   Mostly Cloudy
10:16 PM 19.9 °F 6.2 °F 15.1 °F 81% 30.15 in 10.0 mi North 15.0 mph - N/A   Mostly Cloudy
10:54 PM 19.0 °F 4.5 °F 15.1 °F 85% 30.22 in 9.0 mi North 16.1 mph - 0.00 in   Overcast
11:22 PM 19.0 °F 6.1 °F 15.1 °F 85% 30.19 in 8.0 mi North 12.7 mph - N/A   Mostly Cloudy
11:54 PM 19.0 °F 2.4 °F 15.1 °F 85% 30.27 in 5.0 mi North 21.9 mph 29.9 mph N/A   Overcast